Palma de Mallorca, Spain

12:55 AM CET on December 16, 2017 (GMT +0100)
Palma De Mallorca

Weather History for LEPA - November, 2012

Change the Weather History Date:

Wednesday, November 21, 2012

  Actual Average Record
Temperature  
Mean Temperature 58 °F -  
Max Temperature 66 °F 60 °F 73 °F (2014)
Min Temperature 50 °F 42 °F 35 °F (1998)
Degree Days  
Heating Degree Days 7    
Growing Degree Days 8 (Base 50)    
Moisture  
Dew Point 55 °F    
Average Humidity 91    
Maximum Humidity 100    
Minimum Humidity 65    
Precipitation  
Precipitation 0.00 in 0.06 in - ()
Sea Level Pressure  
Sea Level Pressure 30.07 in    
Wind  
Wind Speed 2 mph ()    
Max Wind Speed 13 mph    
Max Gust Speed -    
Visibility 5.8 miles    
Events Fog    
Averages and records for this station are not official NWS values.
T = Trace of Precipitation, MM = Missing Value Source: Averaged Metar Reports

Daily Weather History Graph

Daily Weather History Graph

Search for Another Location

Airport or City:

Trip Planner

Search our weather history database for the weather conditions in past years. The results will help you decide how hot, cold, wet, or windy it might be!

Date:

Astronomy

Nov. 21, 2012 Rise Set
Actual Time 7:40 AM CET 5:29 PM CET
Civil Twilight 7:10 AM CET 5:58 PM CET
Nautical Twilight 6:38 AM CET 6:31 PM CET
Astronomical Twilight 6:06 AM CET 7:03 PM CET
Moon 1:37 PM CET (11/21) 12:44 AM CET (11/21)
Length of Visible Light 10h 47m
Length of Day
9h 49m
First Quarter, 59% of the Moon is Illuminated
Nov 21
First Quarter
Nov 28
Full
Dec 6
Last Quarter
Dec 13
New
Dec 20
First Quarter

Hourly Weather History & Observations

Time (CET) Temp. Dew Point Humidity Pressure Visibility Wind Dir Wind Speed Gust Speed Precip Events Conditions
12:00 AM 53.6 °F 51.8 °F 94% 30.06 in 6.2 mi Calm Calm - N/A   Scattered Clouds
12:30 AM 51.8 °F 50.0 °F 94% 30.06 in 6.2 mi NNE 1.2 mph - N/A   Partly Cloudy
1:00 AM 51 °F 49 °F 90% 30.07 in 9 mi Calm Calm - -   Scattered Clouds
1:00 AM 51.8 °F 50.0 °F 94% 30.04 in 6.2 mi NNE 1.2 mph - N/A   Partly Cloudy
1:30 AM 51.8 °F 50.0 °F 94% 30.04 in 6.2 mi North 1.2 mph - N/A   Partly Cloudy
2:00 AM 51.8 °F 51.8 °F 100% 30.04 in 6.2 mi Calm Calm - N/A   Partly Cloudy
2:30 AM 51.8 °F 50.0 °F 94% 30.04 in 6.2 mi Calm Calm - N/A   Partly Cloudy
3:00 AM 51.8 °F 51.8 °F 100% 30.04 in 5.6 mi Variable 1.2 mph - N/A   Partly Cloudy
3:13 AM 51.8 °F 51.8 °F 100% 30.04 in 3.1 mi Calm Calm - N/A   Partly Cloudy
3:30 AM 53.6 °F 51.8 °F 94% 30.04 in 3.1 mi Calm Calm - N/A   Partly Cloudy
4:00 AM 51.8 °F 51.8 °F 100% 30.04 in 3.1 mi North 1.2 mph - N/A   Partly Cloudy
4:30 AM 51.8 °F 51.8 °F 100% 30.04 in 3.1 mi ENE 1.2 mph - N/A   Partly Cloudy
4:42 AM 51.8 °F 50.0 °F 94% 30.04 in 1.9 mi NE 1.2 mph - N/A   Partly Cloudy
5:00 AM 51.8 °F 50.0 °F 94% 30.04 in 3.1 mi Calm Calm - N/A   Partly Cloudy
5:30 AM 51.8 °F 51.8 °F 100% 30.04 in 3.1 mi North 1.2 mph - N/A   Partly Cloudy
6:00 AM 51.8 °F 51.8 °F 100% 30.04 in 3.7 mi Calm Calm - N/A   Partly Cloudy
6:30 AM 51.8 °F 51.8 °F 100% 30.04 in 3.7 mi Calm Calm - N/A   Partly Cloudy
7:00 AM 51 °F 49 °F 91% 30.05 in 2 mi Calm Calm - -   Mist
7:00 AM 51.8 °F 51.8 °F 100% 30.04 in 3.7 mi NNE 1.2 mph - N/A   Partly Cloudy
7:30 AM 51.8 °F 51.8 °F 100% 30.04 in 3.1 mi Calm Calm - N/A   Partly Cloudy
8:00 AM 51.8 °F 51.8 °F 100% 30.06 in 4.3 mi NNE 1.2 mph - N/A Fog Fog
8:30 AM 53.6 °F 51.8 °F 94% 30.06 in 5.6 mi Variable 1.2 mph - N/A Fog Fog
9:00 AM 55.4 °F 53.6 °F 94% 30.06 in 6.2 mi Variable 1.2 mph - N/A Fog Partly Cloudy
9:30 AM 57.2 °F 55.4 °F 94% 30.06 in 6.2 mi Variable 1.2 mph - N/A   Partly Cloudy
10:00 AM 59.0 °F 57.2 °F 94% 30.06 in 6.2 mi Calm Calm - N/A   Partly Cloudy
10:30 AM 60.8 °F 59.0 °F 94% 30.06 in 6.2 mi Calm Calm - N/A   Partly Cloudy
11:00 AM 64.4 °F 60.8 °F 88% 30.06 in 6.2 mi SW 6.9 mph - N/A   Partly Cloudy
11:30 AM 64.4 °F 59.0 °F 83% 30.09 in 6.2 mi SW 9.2 mph - N/A   Partly Cloudy
12:00 PM 66.2 °F 59.0 °F 78% 30.09 in 6.2 mi SW 11.5 mph - N/A   Partly Cloudy
12:30 PM 66.2 °F 59.0 °F 78% 30.06 in 6.2 mi SW 10.4 mph - N/A   Partly Cloudy
1:00 PM 66 °F 57 °F 65% 30.08 in 19 mi SW 12.7 mph - -   Scattered Clouds
1:00 PM 66.2 °F 59.0 °F 78% 30.06 in 6.2 mi SW 11.5 mph - N/A   Partly Cloudy
1:30 PM 66.2 °F 59.0 °F 78% 30.06 in 6.2 mi SW 9.2 mph - N/A   Partly Cloudy
2:00 PM 66.2 °F 59.0 °F 78% 30.06 in 6.2 mi SW 10.4 mph - N/A   Partly Cloudy
2:30 PM 66.2 °F 59.0 °F 78% 30.06 in 6.2 mi SW 10.4 mph - N/A   Partly Cloudy
3:00 PM 66.2 °F 59.0 °F 78% 30.06 in 6.2 mi SW 8.1 mph - N/A   Partly Cloudy
3:30 PM 66.2 °F 59.0 °F 78% 30.06 in 6.2 mi SW 6.9 mph - N/A   Partly Cloudy
4:00 PM 64.4 °F 59.0 °F 83% 30.06 in 6.2 mi SW 6.9 mph - N/A   Partly Cloudy
4:30 PM 64.4 °F 59.0 °F 83% 30.06 in 6.2 mi SW 4.6 mph - N/A   Partly Cloudy
5:00 PM 64.4 °F 59.0 °F 83% 30.06 in 6.2 mi Variable 2.3 mph - N/A   Partly Cloudy
5:30 PM 64.4 °F 59.0 °F 83% 30.06 in 6.2 mi SSW 1.2 mph - N/A   Partly Cloudy
6:00 PM 62.6 °F 59.0 °F 88% 30.09 in 6.2 mi SSE 2.3 mph - N/A   Partly Cloudy
6:30 PM 62.6 °F 59.0 °F 88% 30.09 in 6.2 mi Variable 1.2 mph - N/A   Partly Cloudy
7:00 PM 61 °F 56 °F 78% 30.11 in 9 mi ESE 1.2 mph - -   Scattered Clouds
7:00 PM 60.8 °F 57.2 °F 88% 30.09 in 6.2 mi Calm Calm - N/A   Partly Cloudy
7:30 PM 59.0 °F 57.2 °F 94% 30.09 in 6.2 mi ENE 3.5 mph - N/A   Partly Cloudy
8:00 PM 59.0 °F 57.2 °F 94% 30.12 in 6.2 mi ENE 2.3 mph - N/A   Partly Cloudy
8:30 PM 57.2 °F 55.4 °F 94% 30.12 in 6.2 mi NE 1.2 mph - N/A   Partly Cloudy
9:00 PM 57.2 °F 55.4 °F 94% 30.12 in 6.2 mi ENE 3.5 mph - N/A   Partly Cloudy
9:30 PM 57.2 °F 55.4 °F 94% 30.12 in 6.2 mi Variable 1.2 mph - N/A   Partly Cloudy
10:00 PM 55.4 °F 55.4 °F 100% 30.12 in 6.2 mi Variable 1.2 mph - N/A   Scattered Clouds
10:30 PM 57.2 °F 55.4 °F 94% 30.15 in 6.2 mi NE 3.5 mph - N/A   Scattered Clouds
11:00 PM 57.2 °F 55.4 °F 94% 30.15 in 6.2 mi Variable 1.2 mph - N/A   Scattered Clouds
11:30 PM 55.4 °F 55.4 °F 100% 30.15 in 6.2 mi ENE 4.6 mph - N/A   Mostly Cloudy